Terminal Aerodrome Forecast
Issued by NWS

Home | Current Version | Previous Version | Text Only | Print | Product List | Glossary On
Versions: 1 2 3 4 5 6 7 8 9 10 11 12 13 14 15 16 17 18 19 20 21 22 23 24 25 26 27 28 29 30 31 32 33 34 35 36 37 38 39 40 41
000
FTUS45 KSLC 260024 AAA
TAFEVW
TAF AMD
KEVW 260024Z 2600/2624 30007KT 3SM -SN BR SCT005 BKN035
     FM260400 01010KT P6SM -SHSN SCT015 BKN035
     FM261500 02007KT P6SM SCT060 BKN100=

USA.gov is the U.S. government's official web portal to all federal, state and local government web resources and services.